Flag for Turkey Weather past 2 weeks in Bodrum, Turkey

Now
66 °F

Passing clouds.


Feels Like: 66 °F
Forecast: 74 / 85 °F
Wind: No wind

Location: Bodrum Milas Airport

Current Time: Jul 24, 2014 at 7:29:53 AM

Latest Report: Jul 24, 2014 at 6:50 AM


Visibility: N/A

Pressure: 29.74 "Hg

Humidity: 83%

Dew point: 61 °F

Location of BodrumLocation

Historic Weather in Bodrum — Graph

°F

Bodrum temperature yesterday

Maximum temperature yesterday: 88 °F (at 3:50 PM)
Minimum temperature yesterday: 64 °F (at 5:50 AM)
Average temperature yesterday: 76 °F

Past Weeks' High & Low Weather Summary

 TemperatureHumidityPressure
High99 °F (Jul 11, 3:20 PM)94% (Jul 13, 6:20 AM)29.89 "Hg (Jul 13, 6:20 AM)
Low63 °F (Jul 10, 4:20 AM)19% (Jul 11, 3:20 PM)29.62 "Hg (Jul 20, 4:20 PM)
Average80 °F59%29.75 "Hg
* Reported Jul 9 7:50 AM — Jul 24 6:20 AM, Bodrum, Weather by CustomWeather, © 2014

Note: Actual official high and low records may vary slightly from our data, if they occured in-between our weather recording intervals... More about our weather records

Advertising

Bodrum weather history for previous 24 hours

 ConditionsComfort  
Time TempWeatherWind HumidityBarometerVisibility
6:20 AM
Jul 24
66 °FPassing clouds.2 mph83%29.74 "HgN/A
5:50 AM66 °FClear.6 mph88%29.74 "Hg10 mi
5:20 AM64 °FPassing clouds.3 mph88%29.74 "HgN/A
4:50 AM66 °FClear.3 mph88%29.74 "Hg10 mi
3:50 AM66 °FClear.5 mph83%29.74 "Hg10 mi
3:20 AM66 °FPassing clouds.5 mph88%29.74 "HgN/A
2:50 AM68 °FClear.5 mph83%29.74 "Hg10 mi
2:20 AM68 °FPassing clouds.3 mph83%29.77 "HgN/A
1:50 AM68 °FPassing clouds.3 mph83%29.77 "HgN/A
1:20 AM70 °FPassing clouds.3 mph83%29.77 "HgN/A
12:50 AM70 °FClear.2 mph83%29.80 "Hg10 mi
12:20 AM72 °FPassing clouds.3 mph83%29.80 "HgN/A
11:50 PM
Jul 23
72 °FPassing clouds.5 mph78%29.77 "HgN/A
11:20 PM73 °FClear.No wind78%29.77 "Hg10 mi
10:50 PM73 °FClear.6 mph78%29.77 "Hg10 mi
9:50 PM77 °FClear.1 mph69%29.77 "Hg10 mi
9:20 PM79 °FSunny.7 mph65%29.77 "Hg10 mi
8:50 PM79 °FPassing clouds.8 mph65%29.77 "HgN/A
8:20 PM81 °FPassing clouds.13 mph62%29.77 "HgN/A
7:50 PM82 °FPassing clouds.13 mph55%29.74 "HgN/A
7:20 PM82 °FPassing clouds.14 mph55%29.74 "HgN/A
6:50 PM84 °FPassing clouds.14 mph51%29.74 "HgN/A
6:20 PM84 °FPassing clouds.14 mph55%29.74 "HgN/A
5:50 PM86 °FPassing clouds.17 mph49%29.74 "HgN/A
5:20 PM86 °FPassing clouds.17 mph49%29.74 "HgN/A
4:50 PM88 °FPassing clouds.16 mph49%29.74 "HgN/A
4:20 PM88 °FPassing clouds.17 mph49%29.74 "HgN/A
3:50 PM88 °FPassing clouds.17 mph46%29.74 "HgN/A
7:20 AM70 °FPassing clouds.3 mph69%29.74 "HgN/A
Weather by CustomWeather, © 2014

See weather overviewHow to use our weather pages